HST
1 20580U 90037B   23278.64784743  .00009067  00000-0  47218-3 0  9996
2 20580  28.4690 252.4987 0002631 136.7663  26.9147 15.14290805638211
ISS (ZARYA)
1 25544U 98067A   23279.42111712  .00018776  00000-0  33792-3 0  9998
2 25544  51.6405 137.5729 0005353  77.7362 343.1355 15.49844494419049
CXO
1 25867U 99040B   23279.01445405  .00000960  00000-0  00000-0 0  9991
2 25867  37.3871 182.6615 9048725 274.0211   0.2816  0.37811202 13599